sat.trackr.live / text

‹ back to catalog

ORBCOMM FM113

NORAD 41185 · 2015-081G

PAYLOAD ACTIVE UNKNOWN

§ Identity

Operator
Country
ORB
Launch date
2015-12-22
Launch site
AFETR
Launch vehicle
Mass (kg)
RCS (m²)
0.47

Purposes: comms

External: N2YO · Heavens-Above · Gunter

§ Orbital elements

Epoch: 2026-09-12T05:34:48.432864Z

Period
98.70 min
Inclination
46.9995°
Eccentricity
0.0002377
Mean motion
14.58929023 rev/d
Perigee alt
695.0 km
Apogee alt
698.3 km
Semi-major
7,074.8 km
B*
8.3463e-5
RAAN
219.0262°
Arg perigee
263.6836°
Mean anomaly
96.3779°
Rev number
57,164

§ Raw data

ORBCOMM FM1131 41185U 15081G   26255.23250501  .00000224  00000+0  83463-4 0  99972 41185  46.9995 219.0262 0002377 263.6836  96.3779 14.58929023571645

JSON: /api/v1/satellites/41185 · /tle

For live sub-satellite position, see the globe view (requires WebGL).

§ Visibility from observer

Set your observer location to see the next 7 days of passes ≥ 10°. The values pass through the URL so the page stays shareable.

No JS? Fill the form by hand. The geolocation button needs JavaScript.

§ Radio — SatNOGS DB

ModeDescriptionDownlinkUplink
FM Telemetry 137.663 MHz
FM Telemetry 137.800 MHz

2 transmitters · refreshed weekly from db.satnogs.org